COSMOS 2251 DEB, 37498

Orbit data source: Space-Track

COSMOS 2251 DEB, 37498 is space debris in LEO originally from a launch on Wed, 16 Jun 1993 UTC launched from the Plesetsk Missile And Space Complex (PKMTR). The debris from Iridium 33, an American commercial communications satellite, has been tracked extensively since its accidental collision with the defunct Russian satellite Cosmos 2251 in 2009. This event, occurring at high speed in low Earth orbit (LEO), generated thousands of pieces of space debris, significantly increasing the risk of further collisions. The Iridium 33 debris cloud has impacted space traffic management and orbital debris mitigation strategies, making it a subject of ongoing study in space situational awareness.

Loading next visibility...
Identifier
37498, 1993-036BMB
Orbit
LEO
Country
Flag of CISCIS
Related business
Manufacturer
Unknown
Mission
Spacecraft
Bus & Motor
Unknown
Mass
Unknown
Launch date (UTC)
1993-06-16 (32 years ago)
Launch vehicle
Unknown
Launch site
Plesetsk Missile And Space Complex (PKMTR)
Object type
Payload
Rocket body
Debris
Shape & HBR
Unknown shape, 0.1 m
Radar Cross Section
Small (<0.1 m²)

Expand to show TLE details & history
Last TLE update: 19 hours ago

TLE from 19 hours ago
0 COSMOS 2251 DEB
1 37498U 93036BMB 25299.65898066  .00005980  00000-0  14147-2 0  9998
2 37498  74.0362 272.9378 0013228 335.7173  24.3364 14.54259467646700
Epoch: 2025-10-26T15:48Z
TLE epoch observation values (Epoch: 2025-10-26T15:48:55.929Z)
Latitude
-0.00005°
Longitude
0.43274°
Altitude
705.859 km
Speed
7.508 km/s
True Right ascension
18h 11m 45s
True Declination
0° 00' 00"
Sunlit
Object was in daylight at epoch
Visualization orbit readout
Latitude
Unknown
Longitude
Unknown
Altitude
Unknown
Speed
Unknown
Apparent Right ascension
Unknown
Apparent Declination
Unknown
Sunlit
N/A
Visualization observer readout
Local Sidereal Time
06:07:03
Azimuth
Unknown
Elevation
Unknown
Doppler factor
Unknown
Orbital elements
Apogee altitude
718.75 km
Perigee altitude
699.999 km
Semi-major axis
7,087.511 km
Eccentricity
0.00132
Inclination
74.0362°
RAAN
272.9378°
Arg. of periapsis
335.7173°
True anomaly
24.39896°
Mean anomaly
24.3364°
Eccentric anomaly
24.36767°
Mean motion
3.6375 °/min
Orbital period
98.97 mins
BSTAR
0.0014147
Loading maneuver chart data...
Computing Atmospheric mass density...

Documentation

Showing up to 5 results
|